Torna al catalogo

COSMOS 2251 DEB

AttivoLEO
NORAD 34588·DEBRIS·🇷🇺 Russia

Lanciato Jun 16, 1993 da Plesetsk Cosmodrome

Loading…

Prossimi Passaggi (prossime 24 ore)

TLE

AggiornatoSource: Space-Track

Epoca: Sep 14, 2026, 09:05 UTC

1 34588U 93036WA  26257.37902009  .00000699  00000-0  21759-3 0  9992
2 34588  74.0415 117.1818 0017894 107.9422  66.8741 14.42675932919242

Traccia COSMOS 2251 DEB in tempo reale con AllMySat

Download on the App Store